Year,Month,Day,Hour,Minute,Value (Times are PST for temperature in C)
2014,08,20,00,00,14.60
2014,08,20,00,01,14.60
2014,08,20,00,02,14.60
2014,08,20,00,03,14.60
2014,08,20,00,04,14.60
2014,08,20,00,05,14.60
2014,08,20,00,06,14.60
2014,08,20,00,07,14.60
2014,08,20,00,08,14.70
2014,08,20,00,09,14.70
2014,08,20,00,10,14.70
2014,08,20,00,11,14.70
2014,08,20,00,12,14.70
2014,08,20,00,13,14.60
2014,08,20,00,14,14.60
2014,08,20,00,15,14.60
2014,08,20,00,16,14.60
2014,08,20,00,17,14.60
2014,08,20,00,18,14.60
2014,08,20,00,19,14.60
2014,08,20,00,20,14.60
2014,08,20,00,21,14.60
2014,08,20,00,22,14.60
2014,08,20,00,23,14.60
2014,08,20,00,24,14.60
2014,08,20,00,25,14.60
2014,08,20,00,26,14.60
2014,08,20,00,27,14.60
2014,08,20,00,28,14.60
2014,08,20,00,29,14.60
2014,08,20,00,30,14.50
2014,08,20,00,31,14.50
2014,08,20,00,32,14.50
2014,08,20,00,33,14.50
2014,08,20,00,34,14.50
2014,08,20,00,35,14.40
2014,08,20,00,36,14.40
2014,08,20,00,37,14.40
2014,08,20,00,38,14.40
2014,08,20,00,39,14.30
2014,08,20,00,40,14.30
2014,08,20,00,41,14.30
2014,08,20,00,42,14.30
2014,08,20,00,43,14.30
2014,08,20,00,44,14.30
2014,08,20,00,45,14.20
2014,08,20,00,46,14.20
2014,08,20,00,47,14.20
2014,08,20,00,48,14.20
2014,08,20,00,49,14.20
2014,08,20,00,50,14.20
2014,08,20,00,51,14.20
2014,08,20,00,52,14.20
2014,08,20,00,53,14.20
2014,08,20,00,54,14.20
2014,08,20,00,55,14.20
2014,08,20,00,56,14.20
2014,08,20,00,57,14.20
2014,08,20,00,58,14.10
2014,08,20,00,59,14.10
2014,08,20,01,00,14.10
2014,08,20,01,01,14.10
2014,08,20,01,02,14.10
2014,08,20,01,03,14.00
2014,08,20,01,04,14.00
2014,08,20,01,05,14.00
2014,08,20,01,06,13.90
2014,08,20,01,07,13.90
2014,08,20,01,08,13.90
2014,08,20,01,09,13.90
2014,08,20,01,10,13.80
2014,08,20,01,11,13.80
2014,08,20,01,12,13.80
2014,08,20,01,13,13.80
2014,08,20,01,14,13.80
2014,08,20,01,15,13.70
2014,08,20,01,16,13.70
2014,08,20,01,17,13.70
2014,08,20,01,18,13.70
2014,08,20,01,19,13.70
2014,08,20,01,20,13.70
2014,08,20,01,21,13.70
2014,08,20,01,22,13.70
2014,08,20,01,23,13.70
2014,08,20,01,24,13.70
2014,08,20,01,25,13.70
2014,08,20,01,26,13.70
2014,08,20,01,27,13.70
2014,08,20,01,28,13.60
2014,08,20,01,29,13.60
2014,08,20,01,30,13.60
2014,08,20,01,31,13.60
2014,08,20,01,32,13.60
2014,08,20,01,33,13.60
2014,08,20,01,34,13.60
2014,08,20,01,35,13.60
2014,08,20,01,36,13.60
2014,08,20,01,37,13.60
2014,08,20,01,38,13.50
2014,08,20,01,39,13.50
2014,08,20,01,40,13.50
2014,08,20,01,41,13.50
2014,08,20,01,42,13.50
2014,08,20,01,43,13.40
2014,08,20,01,44,13.40
2014,08,20,01,45,13.40
2014,08,20,01,46,13.40
2014,08,20,01,47,13.40
2014,08,20,01,48,13.40
2014,08,20,01,49,13.30
2014,08,20,01,50,13.30
2014,08,20,01,51,13.30
2014,08,20,01,52,13.30
2014,08,20,01,53,13.30
2014,08,20,01,54,13.30
2014,08,20,01,55,13.30
2014,08,20,01,56,13.30
2014,08,20,01,57,13.30
2014,08,20,01,58,13.30
2014,08,20,01,59,13.30
2014,08,20,02,00,13.30
2014,08,20,02,01,13.30
2014,08,20,02,02,13.30
2014,08,20,02,03,13.30
2014,08,20,02,04,13.30
2014,08,20,02,05,13.30
2014,08,20,02,06,13.30
2014,08,20,02,07,13.30
2014,08,20,02,08,13.30
2014,08,20,02,09,13.30
2014,08,20,02,10,13.30
2014,08,20,02,11,13.30
2014,08,20,02,12,13.20
2014,08,20,02,13,13.20
2014,08,20,02,14,13.20
2014,08,20,02,15,13.20
2014,08,20,02,16,13.20
2014,08,20,02,17,13.20
2014,08,20,02,18,13.20
2014,08,20,02,19,13.20
2014,08,20,02,20,13.10
2014,08,20,02,21,13.10
2014,08,20,02,22,13.10
2014,08,20,02,23,13.10
2014,08,20,02,24,13.10
2014,08,20,02,25,13.10
2014,08,20,02,26,13.00
2014,08,20,02,27,13.00
2014,08,20,02,28,13.00
2014,08,20,02,29,13.00
2014,08,20,02,30,13.00
2014,08,20,02,31,13.00
2014,08,20,02,32,12.90
2014,08,20,02,33,12.90
2014,08,20,02,34,12.90
2014,08,20,02,35,12.90
2014,08,20,02,36,12.90
2014,08,20,02,37,12.90
2014,08,20,02,38,12.90
2014,08,20,02,39,13.00
2014,08,20,02,40,13.00
2014,08,20,02,41,13.00
2014,08,20,02,42,13.00
2014,08,20,02,43,12.90
2014,08,20,02,44,12.90
2014,08,20,02,45,12.90
2014,08,20,02,46,12.90
2014,08,20,02,47,12.90
2014,08,20,02,48,12.90
2014,08,20,02,49,12.90
2014,08,20,02,50,12.90
2014,08,20,02,51,12.90
2014,08,20,02,52,12.90
2014,08,20,02,53,12.90
2014,08,20,02,54,12.90
2014,08,20,02,55,13.00
2014,08,20,02,56,13.00
2014,08,20,02,57,13.00
2014,08,20,02,58,12.90
2014,08,20,02,59,12.90
2014,08,20,03,00,12.90
2014,08,20,03,01,12.90
2014,08,20,03,02,12.90
2014,08,20,03,03,12.80
2014,08,20,03,04,12.80
2014,08,20,03,05,12.80
2014,08,20,03,06,12.80
2014,08,20,03,07,12.80
2014,08,20,03,08,12.80
2014,08,20,03,09,12.80
2014,08,20,03,10,12.80
2014,08,20,03,11,12.80
2014,08,20,03,12,12.80
2014,08,20,03,13,12.80
2014,08,20,03,14,12.80
2014,08,20,03,15,12.70
2014,08,20,03,16,12.70
2014,08,20,03,17,12.70
2014,08,20,03,18,12.70
2014,08,20,03,19,12.60
2014,08,20,03,20,12.60
2014,08,20,03,21,12.60
2014,08,20,03,22,12.50
2014,08,20,03,23,12.50
2014,08,20,03,24,12.50
2014,08,20,03,25,12.40
2014,08,20,03,26,12.40
2014,08,20,03,27,12.40
2014,08,20,03,28,12.40
2014,08,20,03,29,12.40
2014,08,20,03,30,12.40
2014,08,20,03,31,12.40
2014,08,20,03,32,12.40
2014,08,20,03,33,12.40
2014,08,20,03,34,12.30
2014,08,20,03,35,12.30
2014,08,20,03,36,12.30
2014,08,20,03,37,12.30
2014,08,20,03,38,12.30
2014,08,20,03,39,12.30
2014,08,20,03,40,12.30
2014,08,20,03,41,12.40
2014,08,20,03,42,12.40
2014,08,20,03,43,12.40
2014,08,20,03,44,12.40
2014,08,20,03,45,12.40
2014,08,20,03,46,12.40
2014,08,20,03,47,12.50
2014,08,20,03,48,12.50
2014,08,20,03,49,12.50
2014,08,20,03,50,12.50
2014,08,20,03,51,12.50
2014,08,20,03,52,12.50
2014,08,20,03,53,12.50
2014,08,20,03,54,12.40
2014,08,20,03,55,12.40
2014,08,20,03,56,12.40
2014,08,20,03,57,12.40
2014,08,20,03,58,12.40
2014,08,20,03,59,12.40
2014,08,20,04,00,12.40
2014,08,20,04,01,12.40
2014,08,20,04,02,12.40
2014,08,20,04,03,12.30
2014,08,20,04,04,12.30
2014,08,20,04,05,12.30
2014,08,20,04,06,12.30
2014,08,20,04,07,12.30
2014,08,20,04,08,12.30
2014,08,20,04,09,12.30
2014,08,20,04,10,12.30
2014,08,20,04,11,12.20
2014,08,20,04,12,12.20
2014,08,20,04,13,12.20
2014,08,20,04,14,12.20
2014,08,20,04,15,12.10
2014,08,20,04,16,12.10
2014,08,20,04,17,12.10
2014,08,20,04,18,12.10
2014,08,20,04,19,12.00
2014,08,20,04,20,12.00
2014,08,20,04,21,11.90
2014,08,20,04,22,11.90
2014,08,20,04,23,11.90
2014,08,20,04,24,11.90
2014,08,20,04,25,11.80
2014,08,20,04,26,11.80
2014,08,20,04,27,11.80
2014,08,20,04,28,11.80
2014,08,20,04,29,11.80
2014,08,20,04,30,11.70
2014,08,20,04,31,11.70
2014,08,20,04,32,11.70
2014,08,20,04,33,11.60
2014,08,20,04,34,11.60
2014,08,20,04,35,11.50
2014,08,20,04,36,11.50
2014,08,20,04,37,11.40
2014,08,20,04,38,11.40
2014,08,20,04,39,11.40
2014,08,20,04,40,11.40
2014,08,20,04,41,11.40
2014,08,20,04,42,11.30
2014,08,20,04,43,11.30
2014,08,20,04,44,11.30
2014,08,20,04,45,11.30
2014,08,20,04,46,11.30
2014,08,20,04,47,11.30
2014,08,20,04,48,11.20
2014,08,20,04,49,11.20
2014,08,20,04,50,11.20
2014,08,20,04,51,11.20
2014,08,20,04,52,11.20
2014,08,20,04,53,11.20
2014,08,20,04,54,11.20
2014,08,20,04,55,11.20
2014,08,20,04,56,11.20
2014,08,20,04,57,11.20
2014,08,20,04,58,11.20
2014,08,20,04,59,11.20
2014,08,20,05,00,11.20
2014,08,20,05,01,11.20
2014,08,20,05,02,11.20
2014,08,20,05,03,11.10
2014,08,20,05,04,11.10
2014,08,20,05,05,11.10
2014,08,20,05,06,11.10
2014,08,20,05,07,11.10
2014,08,20,05,08,11.10
2014,08,20,05,09,11.10
2014,08,20,05,10,11.10
2014,08,20,05,11,11.10
2014,08,20,05,12,11.10
2014,08,20,05,13,11.10
2014,08,20,05,14,11.10
2014,08,20,05,15,11.10
2014,08,20,05,16,11.10
2014,08,20,05,17,11.10
2014,08,20,05,18,11.10
2014,08,20,05,19,11.10
2014,08,20,05,20,11.10
2014,08,20,05,21,11.10
2014,08,20,05,22,11.10
2014,08,20,05,23,11.10
2014,08,20,05,24,11.10
2014,08,20,05,25,11.00
2014,08,20,05,26,11.00
2014,08,20,05,27,11.00
2014,08,20,05,28,11.00
2014,08,20,05,29,10.90
2014,08,20,05,30,10.90
2014,08,20,05,31,10.90
2014,08,20,05,32,10.90
2014,08,20,05,33,10.90
2014,08,20,05,34,10.90
2014,08,20,05,35,10.90
2014,08,20,05,36,10.90
2014,08,20,05,37,10.90
2014,08,20,05,38,10.90
2014,08,20,05,39,10.90
2014,08,20,05,40,10.90
2014,08,20,05,41,10.80
2014,08,20,05,42,10.80
2014,08,20,05,43,10.80
2014,08,20,05,44,10.80
2014,08,20,05,45,10.80
2014,08,20,05,46,10.80
2014,08,20,05,47,10.80
2014,08,20,05,48,10.80
2014,08,20,05,49,10.80
2014,08,20,05,50,10.80
2014,08,20,05,51,10.80
2014,08,20,05,52,10.80
2014,08,20,05,53,10.80
2014,08,20,05,54,10.80
2014,08,20,05,55,10.80
2014,08,20,05,56,10.80
2014,08,20,05,57,10.80
2014,08,20,05,58,10.80
2014,08,20,05,59,10.80
2014,08,20,06,00,10.80
2014,08,20,06,01,10.80
2014,08,20,06,02,10.80
2014,08,20,06,03,10.80
2014,08,20,06,04,10.70
2014,08,20,06,05,10.70
2014,08,20,06,06,10.70
2014,08,20,06,07,10.70
2014,08,20,06,08,10.70
2014,08,20,06,09,10.70
2014,08,20,06,10,10.70
2014,08,20,06,11,10.60
2014,08,20,06,12,10.60
2014,08,20,06,13,10.60
2014,08,20,06,14,10.60
2014,08,20,06,15,10.60
2014,08,20,06,16,10.60
2014,08,20,06,17,10.50
